[[{"header":{"parameterUnit":"m.s-1","parameterCategory":1,"la1":30.2991,"la2":30.254,"lo1":-89.0895,"lo2":-89.0444,"dy":0.0017,"dx":0.0017,"nx":28,"ny":28,"refTime":"2024-04-27T09:00:00:Z","depth":0,"parameterNumber":2,"parameterNumberName":"U-component_of_WINDS"},"data":[0,0,0,0,0,0,0,0,0,0,0,0,0,0,0,0,0,0,0,0,0,0,0,0,0,0,0,0,0,0,0,0,0,0,0,0,0,0,0,0,0,0,0,0,0,0,0,0,0,0,0,0,0,0,0,0,0,0,-7.0042,-7.0044,0,-7.0159,-7.016,-7.0161,-7.0153,-7.0152,-7.015,-7.0148,-7.0263,-7.0267,-7.0272,0,0,0,0,0,0,0,0,0,0,0,0,0,-6.9811,-6.9816,-7.0042,-7.0044,-7.0045,-7.0158,-7.016,-7.0162,-7.0154,-7.0152,-7.015,-7.0148,-7.0261,-7.0267,-7.0272,0,0,0,0,0,0,0,0,0,0,0,0,0,-6.9918,-6.9817,-7.0042,-7.0055,-7.0057,-7.0158,-7.016,-7.0162,-7.0154,-7.0152,-7.0149,-7.0147,-7.0259,-7.0266,-7.0273,-7.0367,0,0,-7.0294,-7.0297,0,0,0,0,0,0,0,0,-6.9912,-6.9926,-7.0052,-7.0054,-7.0057,-7.0139,-7.012,-7.023,-7.0155,-7.0117,-7.0148,-7.0145,-7.0223,-7.0233,-7.026,-7.0372,-7.0377,-7.0295,-7.0299,-7.0302,-7.0304,0,0,0,0,0,0,0,-6.9905,-6.9921,-7.0088,-7.0054,-7.0057,-7.0054,-7.0067,-7.0141,-7.0183,-7.012,-7.012,-7.0134,-7.0224,-7.0253,-7.0263,-7.0379,-7.0294,-7.0301,-7.0305,-7.0308,-7.0574,-7.0577,0,0,0,0,0,0,-6.9895,-6.9915,-7.0084,-7.0092,-6.9977,-7.0061,-7.0074,-7.0115,-7.0182,-7.019,-7.0136,-7.0133,-7.0243,-7.0255,-7.0267,-7.038,-7.0302,-7.0308,-7.0312,-7.0571,-7.0575,-7.0578,0,0,0,0,0,0,-6.989,-6.991,-7.008,-7.0004,-7.0025,-7.0067,-7.0113,-7.0119,-7.0148,-7.0194,-7.0201,-7.0159,-7.0241,-7.0257,-7.0342,-7.0384,-7.0311,-7.0318,-7.0568,-7.0572,-7.0576,-7.0609,0,0,0,0,0,0,-6.9883,-6.9908,-6.9944,-7.0005,-7.0029,-7.0154,-7.0116,-7.0123,-7.0161,-7.0158,-7.0217,-7.0224,-7.0241,-7.0332,-7.0349,-7.0392,-7.0323,-7.0564,-7.057,-7.0575,-7.0604,-7.0613,-7.0622,0,0,0,0,0,-6.9875,-6.9948,-6.9946,-6.9967,-7.0076,-7.0156,-7.017,-7.0189,-7.0164,-7.02,-7.0231,-7.0222,-7.0378,-7.0341,-7.036,-7.0406,-7.0561,-7.0568,-7.0575,-7.06,-7.0612,-7.0622,0,0,0,0,0,0,-6.9889,-6.9956,-6.9955,-7.0049,-7.0098,-7.0155,-7.0201,-7.0201,-7.0255,-7.025,-7.027,-7.0284,-7.0369,-7.0397,-7.0354,-7.0501,-7.0466,-7.0477,-7.0479,-7.0491,-7.0499,-7.0489,-7.0329,0,0,0,0,0,-6.9904,-6.9965,-7.002,-7.0097,-7.0122,-7.0158,-7.0194,-7.0205,-7.0254,-7.0274,-7.031,-7.0358,-7.0418,-7.0456,-7.0514,-7.061,-7.0622,-7.0651,-7.066,-7.0667,-7.0675,-7.0727,-7.074,-7.06,-7.0599,-7.0599,0,0,-6.9933,-6.9977,-7.0014,-7.0102,-7.014,-7.0202,-7.0175,-7.0241,-7.0287,-7.0284,-7.0366,-7.0395,-7.045,-7.0541,-7.0583,-7.0567,-7.0717,-7.0676,-7.0681,-7.0685,-7.0735,-7.0749,-7.076,-7.0604,-7.0603,-7.0602,0,0,-7.0018,-7.0058,-7.0127,-7.0168,-7.0228,-7.0252,-7.0269,-7.0328,-7.0347,-7.0431,-7.043,-7.0486,-7.0588,-7.0627,-7.066,-7.0765,-7.0759,-7.0784,-7.0828,-7.0879,-7.089,-7.09,-7.0936,-7.0948,-7.0792,-7.0792,-7.0792,0,-7.0046,-7.014,-7.0163,-7.023,-7.0269,-7.0272,-7.0342,-7.038,-7.0455,-7.0481,-7.0463,-7.0593,-7.063,-7.073,-7.0756,-7.0784,-7.0803,-7.0774,-7.0887,-7.0897,-7.0907,-7.0941,-7.0954,-7.0794,-7.0794,-7.0794,-7.0794,0,-7.0171,-7.0237,-7.0286,-7.036,-7.0405,-7.0473,-7.0506,-7.0548,-7.0557,-7.0582,-7.0668,-7.0714,-7.0781,-7.0807,-7.0815,-7.0909,-7.0897,-7.0883,-7.0848,-7.0922,-7.0954,-7.0968,-7.0798,-7.0797,-7.0796,-7.0796,0,0,-7.0263,-7.0352,-7.0369,-7.0404,-7.0472,-7.0523,-7.0592,-7.066,-7.0695,-7.0749,-7.0806,-7.0895,-7.0884,-7.0922,-7.0935,-7.098,-7.1058,-7.0961,-7.0962,-7.0975,-7.1163,-7.117,-7.1185,-7.1057,-7.106,-7.1062,-7.1158,0,-7.0352,-7.0476,-7.05,-7.0607,-7.0668,-7.0674,-7.0735,-7.0783,-7.081,-7.0865,-7.0895,-7.0957,-7.0938,-7.0962,-7.1007,-7.1039,-7.1096,-7.1033,-7.1108,-7.1111,-7.109,-7.1202,-7.121,-7.1298,-7.1171,-7.1173,-7.1175,0,-7.0472,-7.053,-7.0643,-7.0706,-7.0732,-7.0786,-7.085,-7.0904,-7.0959,-7.0976,-7.1021,-7.103,-7.1101,-7.1067,-7.1166,-7.1122,-7.1156,-7.1177,-7.1181,-7.1185,-7.1144,-7.1207,-7.1327,-7.1339,-7.1195,-7.1193,-7.1192,0,-7.0525,-7.0632,-7.0713,-7.0743,-7.0818,-7.0855,-7.0888,-7.0941,-7.0981,-7.1038,-7.1064,-7.1128,-7.1163,-7.1212,-7.1238,-7.1211,-7.1335,-7.1302,-7.1349,-7.1348,-7.137,-7.1368,-7.1494,-7.1398,-7.1398,-7.1398,-7.1397,0,-7.062,-7.0688,-7.0738,-7.0788,-7.0865,-7.0893,-7.0969,-7.1001,-7.1049,-7.1105,-7.1116,-7.1167,-7.12,-7.1257,-7.1278,-7.1356,-7.1372,-7.1387,-7.1391,-7.1384,-7.1381,-7.1402,-7.1396,-7.1401,-7.14,-7.14,-7.1399,0,-7.0689,-7.0726,-7.0815,-7.088,-7.0898,-7.0952,-7.1007,-7.1056,-7.1085,-7.1156,-7.1174,-7.1219,-7.1287,-7.1319,-7.1403,-7.1417,-7.1505,-7.1506,-7.1486,-7.1486,-7.153,-7.1525,-7.1671,-7.1691,-7.1585,-7.1586,-7.1587,0,-7.0746,-7.0799,-7.0871,-7.091,-7.0944,-7.1007,-7.1048,-7.108,-7.1122,-7.1191,-7.1231,-7.13,-7.1356,-7.1464,-7.1503,-7.1567,-7.1569,-7.1616,-7.1578,-7.157,-7.1566,-7.1561,-7.1566,-7.1621,-7.1622,-7.1623,-7.1624,0,-7.0842,-7.0858,-7.0918,-7.0985,-7.1035,-7.1089,-7.1142,-7.1173,-7.1213,-7.126,-7.133,-7.1374,-7.1461,-7.1529,-7.1596,-7.1629,-7.1633,-7.1637,-7.165,-7.1641,-7.1626,-7.1633,-7.1501,-7.1632,-7.1631,-7.163,-7.163,-7.1629,-7.0905,-7.0952,-7.1011,-7.1078,-7.1122,-7.1172,-7.1221,-7.1258,-7.1317,-7.1391,-7.1407,-7.1481,-7.1537,-7.1628,-7.1664,-7.1722,-7.1711,-7.1731,-7.1736,-7.174,-7.1741,-7.1621,-7.1735,-7.1735,-7.1735,-7.1735,-7.1735,0,-7.0999,-7.1038,-7.11,-7.1174,-7.1227,-7.123,-7.129,-7.1333,-7.1399,-7.1452,-7.1508,-7.1589,-7.1656,-7.1702,-7.177,-7.1807,-7.1811,-7.1824,-7.1819,-7.1826,-7.1748,-7.1728,-7.182,-7.182,-7.182,-7.182,-7.182,-7.182,-7.1054,-7.1134,-7.1158,-7.1261,-7.13,-7.1374,-7.1407,-7.1454,-7.1496,-7.1587,-7.1643,-7.1674,-7.1724,-7.1796,-7.1857,-7.187,-7.1892,-7.1905,-7.1917,-7.1841,-7.1832,-7.1823,-7.1805,-7.1911,-7.1911,-7.199,-7.1991,-7.1991]},{"header":{"parameterUnit":"m.s-1","parameterCategory":1,"la1":30.2991,"la2":30.254,"lo1":-89.0895,"lo2":-89.0444,"dy":0.0017,"dx":0.0017,"nx":28,"ny":28,"refTime":"2024-04-27T09:00:00:Z","depth":0,"parameterNumber":3,"parameterNumberName":"V-component_of_WINDS"},"data":[0,0,0,0,0,0,0,0,0,0,0,0,0,0,0,0,0,0,0,0,0,0,0,0,0,0,0,0,0,0,0,0,0,0,0,0,0,0,0,0,0,0,0,0,0,0,0,0,0,0,0,0,0,0,0,0,0,0,5.6824,5.6824,0,5.6846,5.6846,5.6846,5.6837,5.6836,5.6836,5.6835,5.6854,5.6855,5.6856,0,0,0,0,0,0,0,0,0,0,0,0,0,5.6772,5.6773,5.6824,5.6824,5.6824,5.6846,5.6846,5.6846,5.6837,5.6836,5.6835,5.6835,5.6854,5.6855,5.6856,0,0,0,0,0,0,0,0,0,0,0,0,0,5.6794,5.6774,5.6824,5.6822,5.6822,5.6846,5.6846,5.6846,5.6837,5.6836,5.6835,5.6834,5.6854,5.6855,5.6857,5.6882,0,0,5.6861,5.6862,0,0,0,0,0,0,0,0,5.6793,5.6796,5.6822,5.6822,5.6822,5.6838,5.6835,5.6858,5.6837,5.6831,5.6835,5.6834,5.6849,5.6851,5.6857,5.6883,5.6883,5.6861,5.6862,5.6863,5.6863,0,0,0,0,0,0,0,5.6792,5.6795,5.6832,5.6823,5.6823,5.682,5.6822,5.6839,5.6844,5.6832,5.6831,5.6834,5.6849,5.6855,5.6857,5.6884,5.6861,5.6863,5.6864,5.6864,5.6934,5.6934,0,0,0,0,0,0,5.679,5.6794,5.6832,5.6833,5.6806,5.6822,5.6824,5.6834,5.6844,5.6845,5.6835,5.6833,5.6853,5.6855,5.6858,5.6889,5.6863,5.6864,5.6865,5.6933,5.6934,5.6935,0,0,0,0,0,0,5.6789,5.6794,5.6831,5.6813,5.6818,5.6823,5.6834,5.6834,5.6841,5.6846,5.6847,5.684,5.6853,5.6856,5.6877,5.689,5.6865,5.6866,5.6931,5.6933,5.6934,5.6952,0,0,0,0,0,0,5.6788,5.6793,5.6803,5.6814,5.6819,5.6849,5.6835,5.6835,5.6844,5.6842,5.6852,5.6852,5.6852,5.6874,5.6878,5.6892,5.6868,5.693,5.6932,5.6934,5.695,5.6954,5.6957,0,0,0,0,0,5.6786,5.6806,5.6804,5.6808,5.6831,5.685,5.6853,5.6853,5.6845,5.6855,5.6859,5.6852,5.6888,5.6877,5.6881,5.6895,5.6929,5.6932,5.6934,5.6949,5.6953,5.6957,0,0,0,0,0,0,5.6795,5.6807,5.6805,5.6829,5.6839,5.6849,5.6861,5.6858,5.6869,5.6867,5.6866,5.6869,5.6891,5.6895,5.6882,5.6921,5.6907,5.691,5.6917,5.6921,5.6925,5.6923,5.6869,0,0,0,0,0,5.68,5.6815,5.6825,5.6845,5.6851,5.6855,5.6863,5.6863,5.6873,5.6876,5.6882,5.6891,5.6904,5.6913,5.6926,5.6951,5.6953,5.6963,5.6966,5.6969,5.6971,5.6987,5.6991,5.6942,5.6942,5.6942,0,0,5.681,5.6819,5.6828,5.6847,5.6855,5.6871,5.6858,5.6875,5.6886,5.6878,5.6899,5.6904,5.6914,5.6938,5.6948,5.6942,5.6986,5.6971,5.6973,5.6975,5.6989,5.6994,5.6998,5.6943,5.6943,5.6943,0,0,5.6836,5.6844,5.6863,5.6872,5.6885,5.6888,5.6892,5.6903,5.6907,5.6928,5.6923,5.6936,5.6959,5.6967,5.6974,5.7007,5.7002,5.7011,5.7028,5.7043,5.7047,5.705,5.7063,5.7068,5.7013,5.7013,5.7014,0,5.6847,5.6871,5.6873,5.6891,5.69,5.6896,5.6915,5.6923,5.6938,5.6945,5.6937,5.6968,5.6974,5.7,5.7009,5.7014,5.702,5.701,5.7046,5.705,5.7053,5.7065,5.707,5.7015,5.7014,5.7014,5.7014,0,5.6884,5.6901,5.6915,5.6932,5.6943,5.6961,5.6966,5.6976,5.6976,5.698,5.7002,5.701,5.7025,5.7031,5.703,5.7058,5.7054,5.7047,5.7033,5.7059,5.707,5.7075,5.7016,5.7016,5.7015,5.7015,0,0,5.6915,5.6936,5.6941,5.695,5.6964,5.6977,5.6996,5.7012,5.7022,5.7033,5.7049,5.707,5.7064,5.7072,5.7072,5.7085,5.7112,5.7076,5.7076,5.7083,5.7145,5.7151,5.7156,5.7109,5.711,5.711,5.7144,0,5.6943,5.6978,5.6981,5.7012,5.7028,5.7026,5.7042,5.7053,5.7058,5.7072,5.7077,5.7092,5.7083,5.7088,5.7101,5.7106,5.7124,5.7103,5.7124,5.7124,5.7122,5.7162,5.7168,5.7199,5.7149,5.7149,5.715,0,5.6981,5.6996,5.7029,5.7044,5.7051,5.7066,5.7082,5.7096,5.7108,5.7111,5.7122,5.712,5.714,5.7126,5.7153,5.7139,5.7147,5.7151,5.7152,5.7154,5.7139,5.7166,5.7209,5.7214,5.7157,5.7156,5.7156,0,5.7002,5.703,5.7054,5.7061,5.7079,5.709,5.7097,5.7109,5.712,5.7134,5.7141,5.7156,5.7165,5.7177,5.718,5.7169,5.7207,5.7193,5.721,5.721,5.7218,5.7218,5.7264,5.7223,5.7223,5.7223,5.7222,0,5.7033,5.7054,5.7064,5.7079,5.7102,5.7106,5.7128,5.7135,5.7147,5.7162,5.716,5.7175,5.7178,5.7193,5.7195,5.7218,5.7222,5.7225,5.7225,5.7225,5.7225,5.7231,5.7229,5.7224,5.7224,5.7223,5.7223,0,5.706,5.7068,5.7094,5.711,5.7114,5.7131,5.7144,5.7158,5.7164,5.7184,5.7189,5.7197,5.7215,5.722,5.7241,5.7242,5.727,5.7268,5.7266,5.7266,5.7283,5.7282,5.7336,5.7344,5.7296,5.7297,5.7297,0,5.708,5.7096,5.7115,5.7127,5.7135,5.7153,5.7165,5.717,5.7182,5.7199,5.7211,5.7229,5.7244,5.7274,5.7281,5.7297,5.7296,5.7314,5.7298,5.7299,5.7298,5.7297,5.7299,5.7317,5.7317,5.7318,5.7318,0,5.7115,5.7119,5.7137,5.7156,5.7171,5.7185,5.72,5.7209,5.7216,5.7229,5.7249,5.7261,5.7284,5.7302,5.7319,5.7326,5.7324,5.7323,5.7328,5.7329,5.7328,5.733,5.7275,5.7322,5.7321,5.7321,5.7321,5.7321,5.714,5.7155,5.7172,5.7192,5.7204,5.7218,5.7233,5.7241,5.7258,5.7279,5.728,5.7302,5.7316,5.7339,5.7347,5.7364,5.7358,5.7365,5.7367,5.7369,5.7371,5.7325,5.7367,5.7366,5.7366,5.7366,5.7366,0,5.7176,5.7188,5.7206,5.7228,5.7244,5.7242,5.7258,5.7271,5.7291,5.7305,5.732,5.7344,5.7362,5.7372,5.739,5.7402,5.7401,5.7407,5.7406,5.7408,5.7374,5.7369,5.7407,5.7407,5.7407,5.7407,5.7407,5.7407,5.7197,5.7224,5.723,5.7262,5.7273,5.7296,5.7305,5.7318,5.733,5.7357,5.7373,5.738,5.7392,5.7412,5.7429,5.7431,5.7438,5.7445,5.7446,5.7414,5.741,5.7406,5.7401,5.7446,5.7446,5.7479,5.748,5.748]}]]